period_start,C,m1,H,J0,J1,J2,J3,J4,J5,JA,JB,JC,JD,JJ,JK,JN,#
2014-09-24 00:01:39,-0.00,0.89,0.00,22.11,27.07,29.75,9.65,39.86,1007.25,2038.12,3033.00,3090.98,3313.93,499.83,493.39,48.42,0000 0000 0000 0000 000000
2014-09-24 00:06:41,0.01,0.89,0.00,22.31,27.07,29.81,9.46,39.71,1007.32,2038.04,3032.96,3090.87,3313.45,499.75,493.12,48.46,0000 0000 0000 0000 000000
2014-09-24 00:11:42,0.03,0.89,0.00,22.38,27.07,29.82,9.39,39.78,1007.32,2038.01,3032.58,3090.27,3313.04,499.58,492.78,48.50,0000 0000 0000 0000 000000
2014-09-24 00:16:43,0.01,0.89,0.00,22.45,27.07,29.81,9.56,39.85,1007.27,2038.03,3032.29,3090.18,3313.02,500.37,493.50,48.54,0000 0000 0000 0000 000000
2014-09-24 00:21:44,0.01,0.89,0.00,22.49,27.07,29.79,9.31,39.90,1007.22,2038.05,3032.04,3090.04,3313.00,499.47,492.58,48.58,0000 0000 0000 0000 000000
2014-09-24 00:26:45,-0.00,0.89,0.00,22.50,27.07,29.79,9.58,40.13,1007.26,2038.02,3032.00,3090.01,3313.00,500.18,493.10,48.63,0000 0000 0000 0000 000000
2014-09-24 00:31:46,0.00,0.89,0.00,22.52,27.07,29.78,9.69,40.33,1007.30,2038.04,3032.00,3090.00,3312.99,500.37,493.37,48.67,0000 0000 0000 0000 000000
2014-09-24 00:36:47,0.00,0.89,0.00,22.56,27.06,29.76,9.58,40.12,1007.32,2038.04,3031.96,3090.00,3312.87,500.30,492.86,48.71,0000 0000 0000 0000 000000
2014-09-24 00:41:49,0.01,0.89,0.00,22.52,27.05,29.79,9.63,40.16,1007.31,2038.08,3031.69,3089.99,3312.63,500.51,493.37,48.75,0000 0000 0000 0000 000000
2014-09-24 00:46:50,0.02,0.89,0.00,22.54,27.05,29.79,9.72,40.17,1007.28,2038.13,3031.24,3089.99,3312.31,500.57,493.50,48.79,0000 0000 0000 0000 000000
2014-09-24 00:51:51,0.03,0.89,0.00,22.60,27.04,29.77,9.46,39.94,1007.23,2038.31,3031.10,3089.99,3312.14,499.75,492.55,48.83,0000 0000 0000 0000 000000
2014-09-24 00:56:52,0.03,0.89,0.00,22.63,27.02,29.78,9.56,39.93,1007.28,2038.51,3031.05,3089.98,3312.08,500.12,492.78,48.88,0000 0000 0000 0000 000000
2014-09-24 01:01:54,-0.03,0.90,0.00,22.60,27.02,29.74,9.54,40.02,1007.29,2038.45,3031.01,3089.97,3312.01,500.46,493.26,48.92,0000 0000 0000 0000 000000
2014-09-24 01:06:55,0.06,0.90,0.00,22.64,27.00,29.73,9.50,40.05,1007.28,2038.81,3031.01,3089.98,3312.03,500.10,492.62,48.96,0000 0000 0000 0000 000000
2014-09-24 01:11:56,0.08,0.90,0.00,22.71,27.00,29.79,9.63,40.14,1007.25,2038.80,3029.85,3088.96,3311.01,500.27,492.82,49.00,0000 0000 0000 0000 000000
2014-09-24 01:16:57,1.38,0.94,0.00,22.76,26.99,29.79,9.59,40.20,1007.25,2038.86,3010.72,3073.42,3294.47,500.21,492.57,49.04,0000 0000 0000 0000 000000
2014-09-24 01:21:59,3.80,1.04,0.00,22.78,26.97,29.78,9.45,40.27,1007.26,2038.48,2968.61,3038.86,3257.24,499.76,492.26,49.08,0000 0000 0000 0000 000000
2014-09-24 01:27:00,2.13,1.18,0.13,22.71,26.97,29.77,9.49,40.24,1007.22,2038.30,2923.39,3002.84,3218.23,500.20,492.70,49.13,0000 0000 0000 0000 000000
2014-09-24 01:32:01,0.51,1.22,1.00,22.67,26.95,29.76,9.46,40.34,1007.05,2038.50,2913.54,2995.77,3210.30,499.87,492.50,49.17,0000 0000 0000 0000 000000
2014-09-24 01:37:02,0.21,1.23,1.00,22.70,26.95,29.73,9.42,40.29,1007.03,2038.40,2908.33,2992.19,3206.28,500.13,492.57,49.21,0000 0000 0000 0000 000000
2014-09-24 01:42:04,0.02,1.24,1.00,22.70,26.94,29.73,9.53,40.33,1007.01,2038.59,2908.00,2992.08,3206.14,499.72,492.17,49.25,0000 0000 0000 0000 000000
2014-09-24 01:47:05,-0.01,1.24,1.00,22.70,26.92,29.67,9.57,40.38,1007.08,2038.66,2907.99,2992.35,3206.24,500.15,492.80,49.29,0000 0000 0000 0000 000000
2014-09-24 01:52:06,-0.00,1.23,1.00,22.68,26.92,29.69,9.44,40.38,1007.00,2038.75,2907.97,2992.87,3206.70,499.84,492.45,49.33,0000 0000 0000 0000 000000
2014-09-24 01:57:08,0.00,1.23,0.83,22.71,26.90,29.66,9.46,40.13,1006.90,2038.89,2907.93,2992.99,3206.94,499.68,492.09,49.38,0000 0000 0000 0000 000000
2014-09-24 02:02:09,0.01,1.23,0.00,22.74,26.90,29.66,9.49,40.19,1006.89,2038.93,2907.88,2992.99,3206.99,499.97,492.35,49.42,0000 0000 0000 0000 000000
2014-09-24 02:07:10,0.00,1.24,0.00,22.76,26.89,29.63,9.51,40.16,1006.93,2038.95,2907.62,2993.01,3206.99,499.97,492.41,49.46,0000 0000 0000 0000 000000
2014-09-24 02:12:11,0.01,1.24,0.00,22.76,26.87,29.60,9.46,40.24,1007.07,2038.96,2907.14,2993.03,3207.00,499.84,492.28,49.50,0000 0000 0000 0000 000000
2014-09-24 02:17:12,-0.00,1.24,0.00,22.78,26.87,29.60,9.44,40.02,1007.14,2038.97,2907.01,2993.08,3207.00,499.89,492.32,49.54,0000 0000 0000 0000 000000
2014-09-24 02:22:14,-0.01,1.24,0.00,22.79,26.85,29.60,9.50,40.18,1007.20,2038.99,2907.01,2993.34,3207.01,500.05,492.49,49.58,0000 0000 0000 0000 000000
2014-09-24 02:27:15,0.01,1.23,0.00,22.81,26.85,29.59,9.53,40.26,1007.20,2038.98,2906.85,2993.55,3207.01,500.17,492.38,49.62,0000 0000 0000 0000 000000
2014-09-24 02:32:16,0.00,1.24,0.00,22.82,26.83,29.57,9.44,40.18,1007.27,2038.99,2906.40,2993.20,3206.99,499.51,492.10,49.67,0000 0000 0000 0000 000000
2014-09-24 02:37:18,-0.00,1.24,0.00,22.84,26.82,29.52,9.66,40.22,1007.27,2038.99,2906.16,2993.43,3207.00,500.19,492.64,49.71,0000 0000 0000 0000 000000
2014-09-24 02:42:19,-0.01,1.24,0.00,22.83,26.81,29.50,9.33,40.13,1007.28,2038.99,2906.05,2993.85,3207.01,499.38,491.80,49.75,0000 0000 0000 0000 000000
2014-09-24 02:47:20,-0.00,1.24,0.00,22.89,26.80,29.50,9.52,40.21,1007.16,2038.99,2906.01,2993.98,3207.01,500.03,492.36,49.79,0000 0000 0000 0000 000000
2014-09-24 02:52:21,0.00,1.24,0.00,22.90,26.78,29.48,9.42,40.19,1007.13,2039.00,2906.01,2993.99,3207.08,499.61,491.86,49.83,0000 0000 0000 0000 000000
2014-09-24 02:57:23,0.00,1.24,0.00,22.92,26.77,29.54,9.40,39.48,1007.06,2039.00,2906.00,2993.99,3207.16,493.46,485.55,49.87,0000 0000 0000 0000 000009
2014-09-24 03:02:24,0.00,0.12,0.00,22.98,26.76,29.59,8.53,34.81,1007.02,2040.03,3487.78,3306.87,3592.46,448.36,441.57,0.00,0000 0000 0000 0000 000000
2014-09-24 03:07:25,0.00,0.00,0.00,22.95,26.74,29.57,9.56,38.71,1006.99,2040.31,3526.75,3328.53,3619.96,500.30,492.33,0.05,0000 0000 0000 0000 000000
2014-09-24 03:12:27,0.00,0.00,0.00,22.92,26.72,29.56,9.44,38.59,1006.98,2040.51,3526.03,3328.17,3619.27,499.76,491.92,0.09,0000 0000 0000 0000 000000
2014-09-24 03:17:28,0.01,0.00,0.00,22.88,26.70,29.53,9.47,38.56,1007.04,2040.88,3525.99,3328.26,3619.01,499.77,491.88,0.13,0000 0000 0000 0000 000000
2014-09-24 03:22:29,0.01,0.00,0.00,22.89,26.68,29.50,9.49,38.52,1006.92,2040.94,3525.64,3328.10,3619.00,499.92,492.07,0.17,0000 0000 0000 0000 000000
2014-09-24 03:27:30,0.01,0.00,0.00,22.86,26.67,29.46,9.51,38.71,1006.91,2040.94,3525.04,3328.03,3618.98,499.95,492.33,0.21,0000 0000 0000 0000 000000
2014-09-24 03:32:32,0.00,0.00,0.00,22.85,26.65,29.45,9.46,38.73,1006.87,2040.95,3525.00,3328.03,3618.98,499.76,491.98,0.26,0000 0000 0000 0000 000000
2014-09-24 03:37:33,-0.00,0.00,0.00,22.90,26.63,29.43,9.49,38.67,1006.87,2040.97,3525.00,3328.03,3618.83,500.24,492.46,0.30,0000 0000 0000 0000 000000
2014-09-24 03:42:34,0.00,0.00,0.00,22.89,26.61,29.40,9.48,38.68,1006.85,2040.98,3524.98,3328.05,3618.54,500.06,492.30,0.34,0000 0000 0000 0000 000000
2014-09-24 03:47:35,0.01,0.00,0.00,22.84,26.60,29.41,9.44,38.77,1006.85,2040.99,3524.97,3328.04,3618.24,499.79,492.03,0.38,0000 0000 0000 0000 000000
2014-09-24 03:52:36,-0.00,0.00,0.00,22.84,26.57,29.38,9.53,38.69,1006.85,2040.99,3524.96,3328.16,3618.48,499.83,492.24,0.42,0000 0000 0000 0000 000000
2014-09-24 03:57:37,-0.00,0.00,0.00,22.85,26.57,29.36,9.48,38.77,1006.86,2040.99,3524.89,3328.20,3618.37,500.05,492.35,0.46,0000 0000 0000 0000 000000
2014-09-24 04:02:39,0.01,0.00,0.00,22.82,26.55,29.32,9.44,38.48,1006.86,2041.00,3524.77,3328.38,3618.38,499.83,492.09,0.51,0000 0000 0000 0000 000000
2014-09-24 04:07:40,0.00,0.00,0.00,22.84,26.53,29.31,9.46,38.59,1006.86,2041.01,3524.46,3328.46,3618.22,500.10,492.39,0.55,0000 0000 0000 0000 000000
2014-09-24 04:12:41,0.00,0.00,0.00,22.83,26.52,29.29,9.54,38.65,1006.86,2041.01,3524.23,3328.68,3618.15,500.17,492.22,0.59,0000 0000 0000 0000 000000
2014-09-24 04:17:42,0.00,0.00,0.00,22.83,26.50,29.28,9.47,38.52,1006.86,2041.06,3524.14,3328.78,3618.19,499.98,492.36,0.63,0000 0000 0000 0000 000000
2014-09-24 04:22:43,0.01,0.00,0.00,22.77,26.50,29.26,9.47,38.50,1006.86,2041.07,3524.05,3328.70,3618.11,500.24,492.61,0.67,0000 0000 0000 0000 000000
2014-09-24 04:27:44,0.00,0.00,0.00,22.72,26.48,29.23,9.41,38.63,1006.87,2041.14,3524.04,3328.76,3618.08,499.47,492.06,0.71,0000 0000 0000 0000 000000
2014-09-24 04:32:45,0.04,0.01,0.00,22.71,26.47,29.20,9.48,38.77,1006.87,2041.51,3524.02,3328.93,3618.14,499.59,491.97,0.76,0000 0000 0000 0000 000000
2014-09-24 04:37:47,0.02,0.01,0.00,22.75,26.47,29.19,9.49,38.54,1006.91,2041.87,3524.02,3328.95,3618.21,499.78,492.27,0.80,0000 0000 0000 0000 000000
2014-09-24 04:42:48,0.01,0.01,0.00,22.76,26.45,29.20,9.47,38.63,1007.00,2041.96,3524.01,3328.98,3618.26,499.71,491.95,0.84,0000 0000 0000 0000 000000
2014-09-24 04:47:49,0.00,0.01,0.00,22.79,26.45,29.22,9.58,38.83,1007.06,2041.97,3524.01,3328.98,3618.26,500.17,492.54,0.88,0000 0000 0000 0000 000000
2014-09-24 04:52:50,0.00,0.01,0.00,22.83,26.45,29.23,9.50,38.66,1007.25,2041.98,3524.00,3328.99,3618.09,500.06,492.44,0.92,0000 0000 0000 0000 000000
2014-09-24 04:57:51,0.00,0.01,0.00,22.85,26.43,29.24,9.46,38.49,1007.32,2041.99,3524.00,3328.99,3618.08,499.63,492.29,0.97,0000 0000 0000 0000 000000
2014-09-24 05:02:52,0.00,0.01,0.00,22.83,26.42,29.25,9.53,38.66,1007.33,2041.99,3524.00,3328.99,3618.06,500.14,492.40,1.01,0000 0000 0000 0000 000000
2014-09-24 05:07:53,0.00,0.01,0.00,22.85,26.42,29.25,9.46,38.61,1007.33,2041.99,3523.99,3328.99,3618.05,500.20,492.56,1.05,0000 0000 0000 0000 000000
2014-09-24 05:12:54,0.00,0.01,0.00,22.83,26.40,29.25,9.45,38.58,1007.34,2041.99,3523.90,3328.94,3618.00,499.72,492.20,1.09,0000 0000 0000 0000 000000
2014-09-24 05:17:56,-0.00,0.01,0.00,22.75,26.40,29.22,9.54,38.58,1007.34,2041.99,3523.91,3328.96,3618.01,500.22,492.67,1.13,0000 0000 0000 0000 000000
2014-09-24 05:22:57,0.00,0.01,0.00,22.69,26.40,29.18,9.41,38.60,1007.34,2041.99,3523.98,3328.99,3618.01,499.73,492.33,1.18,0000 0000 0000 0000 000000
2014-09-24 05:27:58,0.00,0.01,0.00,22.66,26.40,29.17,9.51,38.52,1007.34,2041.99,3523.93,3328.98,3618.01,500.11,492.82,1.22,0000 0000 0000 0000 000000
2014-09-24 05:32:59,0.00,0.01,0.00,22.64,26.40,29.20,9.63,38.58,1007.34,2042.00,3523.87,3328.98,3618.00,500.78,493.33,1.26,0000 0000 0000 0000 000000
2014-09-24 05:38:00,0.01,0.01,0.00,22.58,26.40,29.17,9.57,38.66,1007.34,2042.00,3523.54,3328.96,3618.00,500.31,493.12,1.30,0000 0000 0000 0000 000000
2014-09-24 05:43:02,0.01,0.01,0.00,22.61,26.40,29.19,9.53,38.75,1007.34,2042.00,3523.21,3328.94,3617.99,499.95,492.73,1.34,0000 0000 0000 0000 000000
2014-09-24 05:48:03,0.00,0.01,0.00,22.69,26.41,29.15,9.55,38.64,1007.34,2042.01,3523.07,3328.92,3617.99,500.11,492.90,1.38,0000 0000 0000 0000 000000
2014-09-24 05:53:04,0.00,0.01,0.00,22.74,26.42,29.15,9.46,38.53,1007.34,2042.01,3523.04,3328.87,3617.98,499.56,492.24,1.43,0000 0000 0000 0000 000000
2014-09-24 05:58:05,0.01,0.01,0.00,22.77,26.42,29.12,9.48,38.58,1007.34,2042.00,3523.00,3328.61,3617.94,500.14,492.74,1.47,0000 0000 0000 0000 000000
2014-09-24 06:03:06,0.01,0.01,0.00,22.80,26.42,29.10,9.49,38.53,1007.34,2042.00,3523.00,3328.30,3617.69,499.91,492.34,1.51,0000 0000 0000 0000 000000
2014-09-24 06:08:08,0.01,0.01,0.00,22.82,26.42,29.12,9.48,38.52,1007.35,2042.01,3522.97,3328.15,3617.38,499.90,492.33,1.55,0000 0000 0000 0000 000000
2014-09-24 06:13:09,0.01,0.01,0.00,22.83,26.42,29.13,9.46,38.36,1007.35,2042.02,3522.88,3328.17,3617.18,499.79,492.34,1.59,0000 0000 0000 0000 000000
2014-09-24 06:18:10,0.01,0.01,0.00,22.83,26.42,29.14,9.45,38.48,1007.35,2042.00,3522.37,3328.03,3617.03,499.97,492.40,1.64,0000 0000 0000 0000 000000
2014-09-24 06:23:11,0.00,0.01,0.00,22.79,26.41,29.17,9.47,38.59,1007.36,2042.00,3522.11,3328.01,3617.00,500.26,492.88,1.68,0000 0000 0000 0000 000000
2014-09-24 06:28:13,0.00,0.01,0.00,22.78,26.41,29.25,9.55,38.66,1007.37,2042.00,3522.01,3328.00,3617.00,500.25,492.65,1.72,0000 0000 0000 0000 000000
2014-09-24 06:33:14,0.00,0.01,0.00,22.82,26.40,29.20,9.54,38.51,1007.40,2042.00,3522.01,3328.00,3617.00,500.15,492.50,1.76,0000 0000 0000 0000 000000
2014-09-24 06:38:15,0.00,0.01,0.00,22.85,26.40,29.19,9.41,38.48,1007.51,2042.00,3522.00,3328.00,3616.99,500.01,492.33,1.80,0000 0000 0000 0000 000000
2014-09-24 06:43:17,0.00,0.01,0.00,22.85,26.40,29.22,9.53,38.47,1007.64,2042.00,3522.00,3328.00,3616.99,500.40,493.08,1.84,0000 0000 0000 0000 000000
2014-09-24 06:48:18,0.00,0.01,0.00,22.83,26.40,29.25,9.56,38.56,1007.73,2042.00,3521.95,3328.00,3616.97,499.70,492.38,1.89,0000 0000 0000 0000 000000
2014-09-24 06:53:19,0.00,0.01,0.00,22.79,26.40,29.24,9.41,38.39,1007.77,2042.00,3521.93,3328.00,3616.96,499.79,492.49,1.93,0000 0000 0000 0000 000000
2014-09-24 06:58:20,0.00,0.01,0.00,22.82,26.40,29.23,9.44,38.48,1007.79,2042.00,3521.77,3328.00,3616.98,499.85,492.58,1.97,0000 0000 0000 0000 000000
2014-09-24 07:03:21,0.01,0.01,0.00,22.87,26.39,29.23,9.49,38.40,1007.79,2042.01,3521.40,3328.00,3616.95,499.78,492.27,2.01,0000 0000 0000 0000 000000
2014-09-24 07:08:23,0.01,0.01,0.00,22.76,26.37,29.22,9.45,38.46,1007.82,2042.02,3521.08,3327.98,3616.83,500.01,492.87,2.05,0000 0000 0000 0000 000000
2014-09-24 07:13:24,0.01,0.01,0.00,22.65,26.37,29.20,9.49,38.52,1007.83,2042.00,3521.03,3327.97,3616.44,500.10,492.92,2.10,0000 0000 0000 0000 000000
2014-09-24 07:18:25,0.00,0.01,0.00,22.68,26.37,29.18,9.56,38.53,1007.83,2042.01,3521.02,3327.98,3616.41,500.26,493.24,2.14,0000 0000 0000 0000 000000
2014-09-24 07:23:26,0.01,0.01,0.00,22.71,26.37,29.16,9.47,38.58,1007.83,2042.02,3521.00,3327.93,3616.22,500.57,493.29,2.18,0000 0000 0000 0000 000000
2014-09-24 07:28:27,0.00,0.01,0.00,22.75,26.37,29.07,9.54,38.65,1007.83,2042.01,3521.00,3327.83,3616.04,500.40,493.26,2.22,0000 0000 0000 0000 000000
2014-09-24 07:33:28,0.01,0.01,0.00,22.78,26.37,29.05,9.61,38.62,1007.83,2042.02,3521.00,3327.71,3616.02,500.27,493.04,2.26,0000 0000 0000 0000 000000
2014-09-24 07:38:29,0.00,0.01,0.00,22.81,26.37,29.00,9.50,38.59,1007.84,2042.02,3520.98,3327.56,3616.00,500.00,492.76,2.31,0000 0000 0000 0000 000000
2014-09-24 07:43:30,0.00,0.01,0.00,22.77,26.37,28.99,9.46,38.60,1007.84,2042.05,3520.97,3327.74,3616.00,499.79,492.61,2.35,0000 0000 0000 0000 000000
2014-09-24 07:48:31,0.01,0.01,0.00,22.78,26.39,28.98,9.29,38.50,1007.88,2042.04,3520.93,3327.44,3616.00,499.91,492.76,2.39,0000 0000 0000 0000 000000
2014-09-24 07:53:32,0.01,0.01,0.00,22.78,26.40,28.94,9.60,38.64,1007.89,2042.02,3520.66,3327.16,3616.00,500.36,493.05,2.43,0000 0000 0000 0000 000000
2014-09-24 07:58:33,0.01,0.01,0.00,22.81,26.40,28.95,9.55,38.52,1007.93,2042.03,3520.25,3327.08,3615.99,500.34,493.06,2.47,0000 0000 0000 0000 000000
2014-09-24 08:03:35,0.01,0.01,0.00,22.81,26.40,28.97,9.43,38.60,1008.08,2042.03,3520.02,3327.02,3615.94,500.05,492.92,2.51,0000 0000 0000 0000 000000
2014-09-24 08:08:36,0.00,0.01,0.00,22.77,26.40,29.00,9.53,38.58,1008.20,2042.00,3520.00,3327.00,3615.75,500.11,493.13,2.56,0000 0000 0000 0000 000000
2014-09-24 08:13:37,0.01,0.02,0.00,22.75,26.41,29.01,9.42,38.52,1008.19,2042.01,3520.00,3327.00,3615.25,500.00,493.14,2.60,0000 0000 0000 0000 000000
2014-09-24 08:18:38,0.00,0.02,0.00,22.74,26.42,29.00,9.51,38.55,1008.25,2042.00,3519.98,3327.00,3615.06,500.38,493.41,2.64,0000 0000 0000 0000 000000
2014-09-24 08:23:39,0.00,0.02,0.00,22.75,26.42,29.00,9.47,38.47,1008.30,2042.01,3519.99,3327.00,3615.02,500.18,493.10,2.68,0000 0000 0000 0000 000000
2014-09-24 08:28:40,0.00,0.02,0.00,22.73,26.42,29.01,9.56,38.48,1008.31,2042.00,3519.96,3327.00,3615.00,499.88,493.12,2.72,0000 0000 0000 0000 000000
2014-09-24 08:33:41,0.00,0.02,0.00,22.76,26.42,29.01,9.48,38.56,1008.31,2042.00,3519.72,3326.99,3615.00,499.66,492.82,2.77,0000 0000 0000 0000 000000
2014-09-24 08:38:42,0.01,0.02,0.00,22.78,26.43,29.01,9.58,38.58,1008.31,2042.00,3519.26,3326.97,3614.99,500.29,493.35,2.81,0000 0000 0000 0000 000000
2014-09-24 08:43:44,0.00,0.02,0.00,22.79,26.45,29.01,9.37,38.60,1008.31,2042.00,3519.06,3326.96,3614.98,499.29,492.37,2.85,0000 0000 0000 0000 000000
2014-09-24 08:48:45,0.00,0.02,0.00,22.75,26.45,29.02,9.42,38.56,1008.32,2042.00,3519.01,3326.86,3614.95,500.09,493.28,2.89,0000 0000 0000 0000 000000
2014-09-24 08:53:46,0.02,0.02,0.00,22.75,26.45,29.03,9.45,38.56,1008.34,2042.00,3519.00,3326.64,3614.83,499.92,493.01,2.93,0000 0000 0000 0000 000000
2014-09-24 08:58:47,-0.00,0.02,0.00,22.80,26.45,29.04,9.42,38.63,1008.33,2042.00,3519.00,3326.47,3614.71,499.78,493.05,2.97,0000 0000 0000 0000 000000
2014-09-24 09:03:48,0.01,0.02,0.00,22.78,26.46,29.06,9.44,38.58,1008.36,2042.00,3519.00,3326.33,3614.42,499.82,492.82,3.02,0000 0000 0000 0000 000000
2014-09-24 09:08:49,0.00,0.02,0.00,22.76,26.47,29.08,9.56,38.47,1008.41,2042.00,3518.98,3326.14,3614.07,499.96,493.05,3.06,0000 0000 0000 0000 000000
2014-09-24 09:13:50,0.00,0.02,0.00,22.71,26.47,29.09,9.48,38.39,1008.51,2042.00,3518.88,3326.04,3614.01,500.11,493.18,3.10,0000 0000 0000 0000 000000
2014-09-24 09:18:52,0.00,0.02,0.00,22.69,26.47,29.08,9.61,38.57,1008.61,2042.00,3518.81,3326.05,3614.03,500.63,493.98,3.14,0000 0000 0000 0000 000000
2014-09-24 09:23:53,0.01,0.02,0.00,22.70,26.47,29.08,9.43,38.51,1008.68,2042.00,3518.32,3326.02,3614.00,499.88,493.19,3.18,0000 0000 0000 0000 000000
2014-09-24 09:28:54,0.00,0.02,0.00,22.73,26.47,29.07,9.51,38.52,1008.72,2042.00,3518.03,3326.00,3614.00,500.13,493.57,3.23,0000 0000 0000 0000 000000
2014-09-24 09:33:55,0.00,0.02,0.00,22.70,26.47,29.06,9.51,38.52,1008.73,2042.00,3518.00,3326.00,3614.00,500.05,493.42,3.27,0000 0000 0000 0000 000000
2014-09-24 09:38:57,0.00,0.02,0.00,22.72,26.47,29.06,9.54,38.68,1008.75,2042.00,3518.00,3325.99,3613.99,500.25,493.68,3.31,0000 0000 0000 0000 000000
2014-09-24 09:43:58,0.00,0.02,0.00,22.74,26.48,29.07,9.51,38.62,1008.76,2042.00,3518.00,3325.99,3613.98,500.25,493.49,3.35,0000 0000 0000 0000 000000
2014-09-24 09:48:59,0.00,0.02,0.00,22.71,26.48,29.07,9.58,38.80,1008.78,2042.00,3517.98,3325.99,3613.95,500.07,493.47,3.39,0000 0000 0000 0000 000000
2014-09-24 09:54:00,0.00,0.02,0.00,22.70,26.48,29.08,9.48,38.67,1008.80,2042.00,3517.96,3325.99,3613.90,500.03,493.46,3.43,0000 0000 0000 0000 000000
2014-09-24 09:59:02,0.01,0.02,0.00,22.68,26.48,29.08,9.53,38.76,1008.80,2042.00,3517.88,3325.97,3613.55,499.60,493.17,3.48,0000 0000 0000 0000 000000
2014-09-24 10:04:03,-0.00,0.02,0.00,22.70,26.48,29.08,9.45,38.62,1008.80,2041.99,3517.69,3325.96,3613.39,499.82,493.43,3.52,0000 0000 0000 0000 000000
2014-09-24 10:09:04,0.01,0.02,0.00,22.69,26.49,29.08,9.45,38.63,1008.80,2041.99,3517.57,3325.97,3613.34,499.77,493.34,3.56,0000 0000 0000 0000 000000
2014-09-24 10:14:05,0.01,0.02,0.00,22.71,26.49,29.09,9.45,38.59,1008.80,2041.99,3517.21,3325.92,3613.11,499.38,492.96,3.60,0000 0000 0000 0000 000000
2014-09-24 10:19:06,-0.00,0.02,0.00,22.73,26.50,29.06,9.41,38.72,1008.80,2041.99,3517.06,3325.89,3613.03,499.87,493.13,3.64,0000 0000 0000 0000 000000
2014-09-24 10:24:07,0.01,0.02,0.00,22.72,26.50,29.07,9.54,38.64,1008.80,2041.99,3517.02,3325.81,3613.02,500.04,493.54,3.69,0000 0000 0000 0000 000000
2014-09-24 10:29:08,0.01,0.02,0.00,22.69,26.50,29.08,9.45,38.42,1008.80,2041.99,3517.00,3325.55,3613.00,500.16,493.37,3.73,0000 0000 0000 0000 000000
2014-09-24 10:34:09,0.00,0.02,0.00,22.71,26.50,29.08,9.49,38.57,1008.81,2041.99,3517.00,3325.39,3613.00,499.96,493.41,3.77,0000 0000 0000 0000 000000
2014-09-24 10:39:10,0.00,0.02,0.00,22.73,26.50,29.09,9.51,38.66,1008.81,2041.98,3517.00,3325.17,3613.00,499.96,493.41,3.81,0000 0000 0000 0000 000000
2014-09-24 10:44:11,-0.00,0.02,0.00,22.70,26.50,29.08,9.51,38.49,1008.80,2041.99,3516.99,3325.17,3613.00,500.11,493.48,3.85,0000 0000 0000 0000 000000
2014-09-24 10:49:13,0.00,0.02,0.00,22.71,26.50,29.07,9.47,38.49,1008.80,2041.99,3516.97,3325.08,3613.00,499.65,493.06,3.89,0000 0000 0000 0000 000000
2014-09-24 10:54:14,0.00,0.02,0.00,22.68,26.50,29.08,9.62,38.63,1008.80,2041.98,3516.84,3325.03,3612.98,500.24,493.72,3.94,0000 0000 0000 0000 000000
2014-09-24 10:59:14,0.00,0.02,0.00,22.70,26.50,29.09,9.44,38.47,1008.81,2041.99,3516.88,3325.04,3612.98,499.73,493.12,3.98,0000 0000 0000 0000 000000
2014-09-24 11:04:15,0.00,0.02,0.00,22.71,26.50,29.10,9.54,38.52,1008.80,2041.99,3516.80,3325.05,3612.98,499.88,493.16,4.02,0000 0000 0000 0000 000000
2014-09-24 11:09:16,0.01,0.02,0.00,22.74,26.50,29.08,9.42,38.51,1008.80,2041.99,3516.44,3325.02,3612.96,499.63,493.09,4.06,0000 0000 0000 0000 000000
2014-09-24 11:14:17,0.01,0.02,0.00,22.70,26.50,29.08,9.42,38.55,1008.80,2041.98,3516.08,3325.01,3612.78,499.69,493.08,4.10,0000 0000 0000 0000 000000
2014-09-24 11:19:19,-0.00,0.02,0.00,22.69,26.51,29.10,9.47,38.58,1008.80,2041.99,3516.02,3325.01,3612.66,500.27,493.73,4.15,0000 0000 0000 0000 000000
2014-09-24 11:24:20,0.00,0.02,0.00,22.69,26.51,29.09,9.44,38.52,1008.80,2041.98,3516.01,3325.00,3612.34,500.00,493.45,4.19,0000 0000 0000 0000 000000
2014-09-24 11:29:21,0.00,0.02,0.00,22.67,26.52,29.08,9.42,38.59,1008.80,2041.99,3516.00,3325.00,3612.15,499.77,493.22,4.23,0000 0000 0000 0000 000000
2014-09-24 11:34:22,0.00,0.02,0.00,22.67,26.52,29.07,9.58,38.66,1008.81,2041.99,3516.00,3325.00,3612.07,500.48,494.09,4.27,0000 0000 0000 0000 000000
2014-09-24 11:39:23,-0.00,0.02,0.00,22.68,26.52,29.08,9.44,38.61,1008.81,2041.97,3515.99,3325.00,3612.02,499.35,492.61,4.31,0000 0000 0000 0000 000000
2014-09-24 11:44:24,0.00,0.02,0.00,22.69,26.52,29.08,9.56,38.63,1008.81,2041.97,3515.99,3324.99,3612.02,500.21,493.80,4.35,0000 0000 0000 0000 000000
2014-09-24 11:49:25,-0.00,0.02,0.00,22.73,26.52,29.08,9.57,38.62,1008.82,2041.97,3515.98,3324.99,3612.00,500.53,493.86,4.40,0000 0000 0000 0000 000000
2014-09-24 11:54:26,0.00,0.02,0.00,22.71,26.52,29.08,9.30,38.57,1008.84,2041.97,3515.87,3324.98,3612.00,499.44,493.07,4.44,0000 0000 0000 0000 000000
2014-09-24 11:59:27,0.01,0.02,0.00,22.70,26.52,29.09,9.45,38.53,1008.83,2041.98,3515.57,3324.95,3612.00,500.01,493.37,4.48,0000 0000 0000 0000 000000
2014-09-24 12:04:28,0.00,0.02,0.00,22.71,26.52,29.11,9.30,38.58,1008.82,2041.96,3515.05,3324.86,3611.97,499.95,493.33,4.52,0000 0000 0000 0000 000000
2014-09-24 12:09:30,0.01,0.02,0.00,22.73,26.52,29.11,9.42,38.37,1008.82,2041.93,3515.01,3324.49,3611.89,500.16,493.45,4.56,0000 0000 0000 0000 000000
2014-09-24 12:14:31,0.01,0.02,0.00,22.70,26.52,29.10,9.51,38.53,1008.83,2041.98,3515.00,3324.32,3611.73,500.48,493.74,4.61,0000 0000 0000 0000 000000
2014-09-24 12:19:32,0.00,0.02,0.00,22.71,26.52,29.09,9.66,38.57,1008.83,2041.94,3515.00,3324.14,3611.43,500.65,494.00,4.65,0000 0000 0000 0000 000000
2014-09-24 12:24:33,0.00,0.03,0.00,22.72,26.52,29.09,9.53,38.60,1008.82,2041.94,3514.98,3324.05,3611.25,500.25,493.53,4.69,0000 0000 0000 0000 000000
2014-09-24 12:29:33,0.00,0.03,0.00,22.72,26.52,29.10,9.64,38.62,1008.82,2041.95,3514.96,3324.07,3611.17,500.48,493.82,4.73,0000 0000 0000 0000 000000
2014-09-24 12:34:35,0.00,0.03,0.00,22.69,26.52,29.11,9.49,38.81,1008.84,2041.97,3514.87,3324.11,3611.10,499.89,493.34,4.77,0000 0000 0000 0000 000000
2014-09-24 12:39:36,0.01,0.03,0.00,22.69,26.52,29.10,9.45,38.54,1008.85,2041.97,3514.37,3324.04,3611.02,499.70,493.18,4.81,0000 0000 0000 0000 000000
2014-09-24 12:44:37,0.00,0.03,0.00,22.69,26.52,29.09,9.51,38.58,1008.85,2041.98,3514.11,3324.03,3611.04,500.07,493.62,4.86,0000 0000 0000 0000 000000
2014-09-24 12:49:38,0.00,0.03,0.00,22.70,26.52,29.09,9.48,38.50,1008.87,2041.97,3514.02,3324.01,3611.01,500.08,493.52,4.90,0000 0000 0000 0000 000000
2014-09-24 12:54:39,-0.00,0.03,0.00,22.69,26.52,29.09,9.41,38.49,1008.82,2041.98,3514.01,3324.01,3611.00,499.67,492.99,4.94,0000 0000 0000 0000 000000
2014-09-24 12:59:41,0.00,0.03,0.00,22.69,26.52,29.07,9.43,38.42,1008.83,2041.97,3514.00,3324.00,3611.00,499.90,493.19,4.98,0000 0000 0000 0000 000000
2014-09-24 13:04:42,0.00,0.03,0.00,22.69,26.52,29.08,9.48,38.47,1008.83,2041.97,3513.98,3324.00,3610.98,500.43,493.76,5.02,0000 0000 0000 0000 000000